Home   Weather   Jefferson City   Past weeks
Flag for USA

Past Weather in Jefferson City, Missouri, USA — Yesterday and Last 2 Weeks

Now
39 °F

Low clouds.


Feels Like: 32 °F
Forecast: 43 / 31 °F
Wind: 12 mph from East

Location: Jefferson City Memorial Airport

Current Time: Jan 18, 2019 at 4:15:08 pm

Latest Report: Jan 18, 2019 at 2:53 pm


Visibility: 10 mi

Pressure: 29.86 "Hg

Humidity: 86%

Dew Point: 35 °F

Location of Jefferson CityLocation

Past Weather in Jefferson City — Graph

°F

Jefferson City Temperature Yesterday

Maximum temperature yesterday: 37 °F (at 1:53 pm)
Minimum temperature yesterday: 34 °F (at 12:53 am)
Average temperature yesterday: 35 °F

High & Low Weather Summary for the Past Weeks

 TemperatureHumidityPressure
High69 °F (Jan 7, 2:53 pm)100% (Jan 16, 8:53 am)30.47 "Hg (Jan 16, 8:53 am)
Low22 °F (Jan 10, 6:53 am)32% (Jan 8, 2:53 pm)29.67 "Hg (Jan 7, 6:53 am)
Average36 °F77%30.14 "Hg
* Reported Jan 3 2:53 pm — Jan 18 2:23 pm, Jefferson City. Weather by CustomWeather, © 2019

Note: Actual official high and low records may vary slightly from our data, if they occured in-between our weather recording intervals... More about our weather records

Advertising

Jefferson City Weather History for the Previous 24 Hours

Scroll right to see more
 ConditionsComfort  
Time TempWeatherWind HumidityBarometerVisibility
2:23 pm
Fri, Jan 18
39 °FMostly cloudy.14 mph86%29.89 "Hg10 mi
2:03 pm39 °FMore clouds than sun.14 mph86%29.91 "Hg10 mi
12:53 pm38 °FLow clouds.12 mph90%29.93 "Hg10 mi
11:53 am38 °FLow clouds.13 mph86%29.97 "Hg10 mi
11:27 am38 °FMostly cloudy.12 mph86%30.01 "Hg10 mi
10:53 am37 °FOvercast.15 mph86%30.03 "Hg10 mi
10:39 am37 °FMore clouds than sun.14 mph86%30.05 "Hg9 mi
10:08 am36 °FMostly cloudy.8 mph89%30.08 "Hg8 mi
9:53 am36 °FLow clouds.10 mph85%30.06 "Hg7 mi
9:07 am35 °FFog.8 mph88%30.08 "Hg5 mi
7:53 am34 °FFog.6 mph88%30.08 "Hg4 mi
7:08 am34 °FFog.7 mph88%30.10 "Hg4 mi
6:53 am34 °FFog.5 mph88%30.09 "Hg4 mi
6:00 am33 °FFog.3 mph92%30.10 "Hg4 mi
4:53 am33 °FFog.6 mph92%30.09 "Hg4 mi
4:25 am33 °FFog.5 mph92%30.12 "Hg5 mi
3:53 am34 °FFog.No wind88%30.12 "Hg6 mi
2:53 am33 °FFog.3 mph92%30.12 "Hg6 mi
1:53 am35 °FLow clouds.No wind85%30.14 "Hg7 mi
12:53 am34 °FLow clouds.No wind88%30.14 "Hg7 mi
11:53 pm
Thu, Jan 17
34 °FLow clouds.No wind88%30.14 "Hg8 mi
10:53 pm34 °FLow clouds.5 mph88%30.17 "Hg8 mi
9:53 pm35 °FMostly cloudy.3 mph85%30.15 "Hg7 mi
9:09 pm35 °FMostly cloudy.5 mph85%30.15 "Hg8 mi
8:53 pm35 °FLow clouds.6 mph85%30.13 "Hg8 mi
8:26 pm35 °FMostly cloudy.5 mph85%30.16 "Hg7 mi
7:53 pm35 °FLow clouds.7 mph85%30.15 "Hg7 mi
6:53 pm36 °FLow clouds.5 mph85%30.13 "Hg8 mi
5:53 pm36 °FLow clouds.No wind85%30.11 "Hg8 mi
4:53 pm36 °FLow clouds.7 mph85%30.10 "Hg8 mi
Weather by CustomWeather, © 2019

See weather overview